El Centro, CA

7:08 AM PDT on July 28, 2017 (GMT -0700)
El Centro Naval Air Facility

Weather History for KNJK - August, 2013

Change the Weather History Date:

Sunday, August 18, 2013

  Actual Average Record
Temperature  
Mean Temperature 98 °F -  
Max Temperature 109 °F 103 °F 114 °F (2015)
Min Temperature 88 °F 79 °F 75 °F (1998)
Cooling Degree Days 34    
Growing Degree Days 48 (Base 50)    
Moisture  
Dew Point 59 °F    
Average Humidity 29    
Maximum Humidity 40    
Minimum Humidity 19    
Precipitation  
Precipitation 0.00 in - - ()
Sea Level Pressure  
Sea Level Pressure 29.76 in    
Wind  
Wind Speed 7 mph (ESE)    
Max Wind Speed 10 mph    
Max Gust Speed -    
Visibility 10 miles    
Events      
Averages and records for this station are not official NWS values.
T = Trace of Precipitation, MM = Missing Value Source: NWS Daily Summary

Daily Weather History Graph

Daily Weather History Graph

Search for Another Location

Airport or City:

Trip Planner

Search our weather history database for the weather conditions in past years. The results will help you decide how hot, cold, wet, or windy it might be!

Date:

Astronomy

Aug. 18, 2013 Rise Set
Actual Time 6:08 AM PDT 7:24 PM PDT
Civil Twilight 5:42 AM PDT 7:49 PM PDT
Nautical Twilight 5:11 AM PDT 8:20 PM PDT
Astronomical Twilight 4:39 AM PDT 8:52 PM PDT
Moon 5:30 PM PDT (8/18) 3:27 AM PDT (8/18)
Length of Visible Light 14h 07m
Length of Day
13h 15m
Waxing Gibbous, 93% of the Moon is Illuminated
Aug 18
Waxing Gibbous
Aug 20
Full
Aug 28
Last Quarter
Sep 5
New
Sep 12
First Quarter

Hourly Weather History & Observations

Time (PDT) Temp. Heat Index Dew Point Humidity Pressure Visibility Wind Dir Wind Speed Gust Speed Precip Events Conditions
12:56 AM 90.0 °F - 52.0 °F 27% 29.74 in 10.0 mi East 10.4 mph - N/A   Unknown
1:56 AM 90.0 °F 89.7 °F 60.1 °F 37% 29.76 in 10.0 mi East 10.4 mph - N/A   Unknown
2:56 AM 90.0 °F 88.8 °F 57.9 °F 34% 29.76 in 10.0 mi SSE 6.9 mph - N/A   Unknown
3:56 AM 88.0 °F 87.9 °F 61.0 °F 40% 29.77 in 10.0 mi WSW 8.1 mph - N/A   Unknown
4:56 AM 89.1 °F 88.8 °F 60.1 °F 38% 29.78 in 10.0 mi SSW 4.6 mph - N/A   Unknown
5:56 AM 88.0 °F 87.6 °F 60.1 °F 39% 29.78 in 10.0 mi East 8.1 mph - N/A   Unknown
6:56 AM 88.0 °F 87.1 °F 59.0 °F 37% 29.80 in 6.0 mi Calm Calm - N/A   Haze
7:56 AM 91.0 °F 90.5 °F 60.1 °F 35% 29.82 in 7.0 mi Calm Calm - N/A   Unknown
8:56 AM 96.1 °F 96.4 °F 61.0 °F 31% 29.82 in 9.0 mi ESE 5.8 mph - N/A   Unknown
9:56 AM 99.0 °F 99.5 °F 60.1 °F 28% 29.83 in 10.0 mi East 6.9 mph - N/A   Unknown
10:56 AM 102.0 °F 101.6 °F 57.9 °F 23% 29.82 in 10.0 mi Variable 3.5 mph - N/A   Unknown
11:56 AM 107.1 °F 106.7 °F 57.0 °F 19% 29.81 in 10.0 mi North - - N/A   Unknown
12:56 PM 106.0 °F 105.8 °F 57.0 °F 20% 29.78 in 10.0 mi North - - N/A   Unknown
1:56 PM 107.1 °F 108.1 °F 59.0 °F 21% 29.76 in 10.0 mi North - - N/A   Unknown
2:56 PM 107.1 °F 108.1 °F 59.0 °F 21% 29.73 in 10.0 mi North - - N/A   Unknown
3:56 PM 105.1 °F 107.8 °F 63.0 °F 25% 29.71 in 10.0 mi North - - N/A   Unknown
4:56 PM 109.0 °F 112.2 °F 62.1 °F 22% 29.70 in - North - - N/A   Unknown
5:56 PM 108.0 °F 108.0 °F 57.9 °F 19% 29.68 in 10.0 mi North - - N/A   Unknown
6:56 PM 102.9 °F 103.0 °F 59.0 °F 23% 29.68 in 10.0 mi North - - N/A   Unknown
7:56 PM 99.0 °F 98.6 °F 59.0 °F 26% 29.71 in 10.0 mi North - - N/A   Unknown
8:56 PM 96.1 °F 96.4 °F 61.0 °F 31% 29.75 in 10.0 mi North - - N/A   Unknown
9:56 PM 96.1 °F 94.8 °F 57.0 °F 27% 29.77 in 10.0 mi North - - N/A   Unknown
10:56 PM 93.0 °F 92.0 °F 57.9 °F 31% 29.78 in 10.0 mi North - - N/A   Unknown
11:56 PM 91.9 °F 90.8 °F 57.9 °F 32% 29.78 in 10.0 mi North - - N/A   Unknown